EN

Hourly Weather Boyary

Today, 16 April, Friday

Time Temperature Precipitation Wind Pressure Humidity
00:00 +3°C° 0 mm 5 mps 738 mmHg 96%
01:00 +5°C° 0 mm 5 mps 738 mmHg 96%
02:00 +5°C° 0 mm 5 mps 738 mmHg 96%
03:00 +5°C° 0.1 mm 5 mps 738 mmHg 96%
04:00 +5°C° 0.1 mm 5 mps 737 mmHg 97%
05:00 +6°C° 0.1 mm 4 mps 737 mmHg 97%
06:00 +6°C° 0.8 mm 4 mps 737 mmHg 97%
07:00 +6°C° 0.8 mm 5 mps 737 mmHg 96%
08:00 +5°C° 0.8 mm 5 mps 737 mmHg 96%
09:00 +6°C° 0.3 mm 5 mps 738 mmHg 93%
10:00 +7°C° 0.3 mm 5 mps 738 mmHg 91%
11:00 +8°C° 0.3 mm 5 mps 738 mmHg 88%
12:00 +9°C° 0.3 mm 5 mps 738 mmHg 84%
13:00 +10°C° 0.3 mm 6 mps 738 mmHg 80%
14:00 +11°C° 0.3 mm 6 mps 738 mmHg 76%
15:00 +10°C° 0.6 mm 6 mps 738 mmHg 75%
16:00 +10°C° 0.6 mm 6 mps 738 mmHg 75%
17:00 +10°C° 0.6 mm 6 mps 739 mmHg 74%
18:00 +9°C° 0.2 mm 5 mps 739 mmHg 78%
19:00 +8°C° 0.2 mm 4 mps 739 mmHg 82%
20:00 +8°C° 0.2 mm 3 mps 740 mmHg 86%
21:00 +7°C° 0 mm 3 mps 740 mmHg 89%
22:00 +6°C° 0 mm 4 mps 740 mmHg 92%
23:00 +6°C° 0 mm 4 mps 740 mmHg 94%

Tomorrow, 17 April, Saturday

Time Temperature Precipitation Wind Pressure Humidity
00:00 +6°C° 0 mm 4 mps 740 mmHg 95%
01:00 +6°C° 0 mm 4 mps 740 mmHg 95%
02:00 +5°C° 0 mm 4 mps 741 mmHg 96%
03:00 +5°C° 0 mm 3 mps 741 mmHg 96%
04:00 +5°C° 0 mm 3 mps 741 mmHg 96%
05:00 +5°C° 0 mm 3 mps 741 mmHg 96%
06:00 +7°C° 0 mm 3 mps 741 mmHg 93%
07:00 +7°C° 0 mm 3 mps 742 mmHg 90%
08:00 +7°C° 0 mm 4 mps 742 mmHg 87%
09:00 +8°C° 0.1 mm 4 mps 742 mmHg 81%
10:00 +10°C° 0.1 mm 4 mps 742 mmHg 74%
11:00 +12°C° 0.1 mm 4 mps 742 mmHg 68%
12:00 +12°C° 0.2 mm 4 mps 742 mmHg 63%
13:00 +13°C° 0.2 mm 4 mps 742 mmHg 58%
14:00 +13°C° 0.2 mm 4 mps 742 mmHg 52%
15:00 +13°C° 0 mm 4 mps 742 mmHg 52%
16:00 +14°C° 0 mm 3 mps 742 mmHg 52%
17:00 +14°C° 0 mm 3 mps 742 mmHg 52%
18:00 +12°C° 0.1 mm 4 mps 743 mmHg 62%
19:00 +11°C° 0.1 mm 4 mps 743 mmHg 73%
20:00 +8°C° 0.1 mm 5 mps 743 mmHg 83%
21:00 +8°C° 0.2 mm 5 mps 743 mmHg 85%
22:00 +8°C° 0.2 mm 5 mps 743 mmHg 87%
23:00 +8°C° 0.2 mm 5 mps 742 mmHg 89%

Day after tomorrow, 18 April, Sunday

Time Temperature Precipitation Wind Pressure Humidity
00:00 +7°C° 0.1 mm 5 mps 742 mmHg 89%
01:00 +7°C° 0.1 mm 5 mps 742 mmHg 90%
02:00 +7°C° 0.1 mm 5 mps 742 mmHg 90%
03:00 +6°C° 0 mm 5 mps 742 mmHg 91%
04:00 +6°C° 0 mm 5 mps 742 mmHg 91%
05:00 +5°C° 0 mm 5 mps 742 mmHg 91%
06:00 +6°C° 0 mm 5 mps 742 mmHg 87%
07:00 +6°C° 0 mm 5 mps 742 mmHg 82%
08:00 +7°C° 0 mm 5 mps 742 mmHg 77%
09:00 +8°C° 0 mm 6 mps 742 mmHg 72%
10:00 +9°C° 0 mm 6 mps 742 mmHg 68%
11:00 +10°C° 0 mm 6 mps 742 mmHg 63%
12:00 +10°C° 0 mm 6 mps 742 mmHg 65%
13:00 +9°C° 0 mm 6 mps 742 mmHg 68%
14:00 +9°C° 0 mm 5 mps 743 mmHg 70%
15:00 +9°C° 0 mm 5 mps 743 mmHg 70%
16:00 +9°C° 0 mm 5 mps 743 mmHg 70%
17:00 +9°C° 0 mm 5 mps 743 mmHg 70%
18:00 +8°C° 0 mm 4 mps 743 mmHg 73%
19:00 +7°C° 0 mm 4 mps 743 mmHg 76%
20:00 +8°C° 0 mm 3 mps 743 mmHg 79%
21:00 +7°C° 0 mm 3 mps 743 mmHg 82%
22:00 +7°C° 0 mm 3 mps 743 mmHg 85%
23:00 +5°C° 0 mm 3 mps 743 mmHg 88%

19 April, Monday

Time Temperature Precipitation Wind Pressure Humidity
00:00 +5°C° 0 mm 3 mps 743 mmHg 90%
01:00 +4°C° 0 mm 3 mps 743 mmHg 92%
02:00 +3°C° 0 mm 3 mps 743 mmHg 94%
03:00 +3°C° 0 mm 3 mps 743 mmHg 92%
04:00 +4°C° 0 mm 3 mps 742 mmHg 91%
05:00 +4°C° 0 mm 3 mps 742 mmHg 89%
06:00 +4°C° 0 mm 4 mps 742 mmHg 89%
07:00 +4°C° 0 mm 4 mps 742 mmHg 89%
08:00 +4°C° 0 mm 4 mps 742 mmHg 89%
09:00 +5°C° 0 mm 4 mps 742 mmHg 86%
10:00 +5°C° 0 mm 5 mps 742 mmHg 83%
11:00 +6°C° 0 mm 5 mps 741 mmHg 81%
12:00 +5°C° 0.1 mm 5 mps 741 mmHg 83%
13:00 +5°C° 0.1 mm 5 mps 741 mmHg 86%
14:00 +5°C° 0.1 mm 5 mps 741 mmHg 88%
15:00 +5°C° 0.2 mm 5 mps 740 mmHg 90%
16:00 +5°C° 0.2 mm 5 mps 740 mmHg 91%
17:00 +5°C° 0.2 mm 5 mps 740 mmHg 92%
18:00 +5°C° 0.3 mm 5 mps 739 mmHg 92%
19:00 +5°C° 0.3 mm 5 mps 739 mmHg 92%
20:00 +5°C° 0.3 mm 5 mps 739 mmHg 93%
21:00 +5°C° 0.5 mm 5 mps 738 mmHg 93%
22:00 +5°C° 0.5 mm 5 mps 738 mmHg 93%
23:00 +5°C° 0.5 mm 5 mps 738 mmHg 92%

20 April, Tuesday

Time Temperature Precipitation Wind Pressure Humidity
00:00 +3°C° 0.2 mm 5 mps 738 mmHg 93%
01:00 +3°C° 0.2 mm 5 mps 737 mmHg 93%
02:00 +4°C° 0.2 mm 4 mps 737 mmHg 93%
03:00 +3°C° 0.5 mm 5 mps 736 mmHg 93%
04:00 +3°C° 0.5 mm 5 mps 736 mmHg 93%
05:00 +3°C° 0.5 mm 5 mps 735 mmHg 94%
06:00 +3°C° 0.1 mm 5 mps 735 mmHg 94%
07:00 +3°C° 0.1 mm 5 mps 735 mmHg 94%
08:00 +3°C° 0.1 mm 5 mps 734 mmHg 93%
09:00 +3°C° 0.1 mm 6 mps 733 mmHg 94%
10:00 +3°C° 0.1 mm 6 mps 733 mmHg 95%
11:00 +3°C° 0.1 mm 6 mps 732 mmHg 96%
12:00 +3°C° 0.3 mm 6 mps 731 mmHg 96%
13:00 +3°C° 0.3 mm 6 mps 730 mmHg 96%
14:00 +3°C° 0.3 mm 7 mps 729 mmHg 95%
15:00 +2°C° 1.8 mm 7 mps 729 mmHg 96%
16:00 0°C° 1.8 mm 7 mps 728 mmHg 96%
17:00 0°C° 1.8 mm 7 mps 727 mmHg 96%
18:00 0°C° 1.7 mm 7 mps 726 mmHg 97%
19:00 0°C° 1.7 mm 7 mps 726 mmHg 97%
20:00 0°C° 1.7 mm 7 mps 725 mmHg 97%
21:00 0°C° 1.2 mm 7 mps 724 mmHg 97%
22:00 0°C° 1.2 mm 7 mps 723 mmHg 97%
23:00 +2°C° 1.2 mm 7 mps 723 mmHg 97%

21 April, Wednesday

Time Temperature Precipitation Wind Pressure Humidity
00:00 +2°C° 1.1 mm 7 mps 722 mmHg 97%
01:00 +2°C° 1.1 mm 6 mps 722 mmHg 97%
02:00 +2°C° 1.1 mm 6 mps 722 mmHg 97%
03:00 +2°C° 0.5 mm 6 mps 722 mmHg 97%
04:00 +2°C° 0.5 mm 6 mps 722 mmHg 97%
05:00 +2°C° 0.5 mm 5 mps 722 mmHg 97%
06:00 +2°C° 0.3 mm 5 mps 722 mmHg 97%
07:00 +2°C° 0.3 mm 6 mps 723 mmHg 97%
08:00 +2°C° 0.3 mm 6 mps 723 mmHg 97%
09:00 +1°C° 0.2 mm 5 mps 724 mmHg 97%
10:00 +1°C° 0.2 mm 5 mps 724 mmHg 96%
11:00 +1°C° 0.2 mm 5 mps 725 mmHg 96%
12:00 +1°C° 0.2 mm 5 mps 725 mmHg 96%
13:00 +1°C° 0.2 mm 5 mps 726 mmHg 96%
14:00 +1°C° 0.2 mm 6 mps 727 mmHg 96%
15:00 +1°C° 0.1 mm 6 mps 727 mmHg 96%
16:00 +1°C° 0.1 mm 6 mps 728 mmHg 96%
17:00 +1°C° 0.1 mm 6 mps 729 mmHg 96%
18:00 +1°C° 0.3 mm 6 mps 729 mmHg 96%
19:00 +1°C° 0.3 mm 6 mps 730 mmHg 97%
20:00 +1°C° 0.3 mm 6 mps 730 mmHg 97%
21:00 +2°C° 0.2 mm 6 mps 731 mmHg 95%
22:00 +2°C° 0.2 mm 6 mps 731 mmHg 93%
23:00 +2°C° 0.2 mm 7 mps 732 mmHg 92%
Show more

We Need Your Consent

Meteoprog and our Service Providers may store and access personal data such as cookies, device identifiers or other similar technologies on your device and process such data to personalise content and ads, as well as provide social media features and to analyse the traffic.

  • Store and/or access information on your device

    Cookies, device identifiers or other information can be stored or accessed on your device for the purposes indicated above.

  • Personalised ads and content, ad and content measurement, audience insights, and products development

    Ads and content can be personalised based on a profile. More data can be added to better personalise ads and content. Ad and content performance can be measured. Insights about the audience who saw the ads and content can be derived. Such data can be used to develop or improve user’s experience, systems and software.

By clicking ‘I Agree’ you will allow the use of indicated cookies, device identifiers, web beacons or other similar technologies. Your settings can be changed in the browser on your device.

For certain purposes, legitimate interests may be relied on, rather than consent. You can read more about this in our Privacy and Cookie Policy.